This is the latest recevied weather packets stored in our database for station/object KE5WTH-14. If no packets are shown the sender has not sent any weather packets the latest 1 day(s).
| Time | Temp. | Humidity | Pressure | Rain* | Wind** | Luminosity | Snow |
|---|---|---|---|---|---|---|---|
| 1778054428 | 13.89° C | 76% | 1009.9 hPa | 0 mm | 1.79 m/s, 0° | 0 W/m² | - |
| 1778054253 | 13.89° C | 76% | 1009.8 hPa | 0 mm | 1.79 m/s, 0° | 0 W/m² | - |
| 1778054192 | 13.89° C | 76% | 1009.8 hPa | 0 mm | 1.34 m/s, 7° | 0 W/m² | - |
| 1778054072 | 13.89° C | 76% | 1009.8 hPa | 0 mm | 1.79 m/s, 7° | 0 W/m² | - |
| 1778054014 | 13.89° C | 76% | 1009.8 hPa | 0 mm | 1.79 m/s, 0° | 0 W/m² | - |
| 1778053953 | 13.89° C | 76% | 1009.8 hPa | 0 mm | 1.79 m/s, 338° | 0 W/m² | - |
| 1778053893 | 13.89° C | 76% | 1009.8 hPa | 0 mm | 1.79 m/s, 23° | 0 W/m² | - |
| 1778053832 | 13.89° C | 76% | 1009.8 hPa | 0 mm | 1.79 m/s, 37° | 0 W/m² | - |
| 1778053771 | 13.89° C | 76% | 1009.8 hPa | 0 mm | 1.79 m/s, 18° | 0 W/m² | - |
| 1778053712 | 13.89° C | 76% | 1009.8 hPa | 0 mm | 2.24 m/s, 11° | 0 W/m² | - |
| 1778053652 | 13.89° C | 76% | 1009.8 hPa | 0 mm | 2.24 m/s, 3° | 0 W/m² | - |
| 1778053591 | 13.89° C | 76% | 1009.8 hPa | 0 mm | 1.79 m/s, 1° | 0 W/m² | - |
| 1778053532 | 13.89° C | 76% | 1009.8 hPa | 0 mm | 1.79 m/s, 16° | 0 W/m² | - |
| 1778053472 | 13.89° C | 76% | 1009.8 hPa | 0 mm | 1.79 m/s, 11° | 0 W/m² | - |
| 1778053413 | 13.89° C | 76% | 1009.8 hPa | 0 mm | 1.79 m/s, 7° | 0 W/m² | - |
| 1778053351 | 13.89° C | 77% | 1009.7 hPa | 0 mm | 2.24 m/s, 23° | 0 W/m² | - |
| 1778053293 | 13.89° C | 76% | 1009.8 hPa | 0 mm | 1.79 m/s, 30° | 0 W/m² | - |
| 1778053231 | 13.89° C | 77% | 1009.7 hPa | 0 mm | 1.79 m/s, 11° | 0 W/m² | - |
| 1778053171 | 13.89° C | 77% | 1009.8 hPa | 0 mm | 1.79 m/s, 24° | 0 W/m² | - |
| 1778053112 | 13.89° C | 77% | 1009.8 hPa | 0 mm | 1.79 m/s, 41° | 0 W/m² | - |
| 1778053053 | 13.89° C | 77% | 1009.8 hPa | 0 mm | 1.79 m/s, 16° | 0 W/m² | - |
| 1778052991 | 13.89° C | 76% | 1009.8 hPa | 0 mm | 2.68 m/s, 0° | 0 W/m² | - |
| 1778052934 | 13.89° C | 76% | 1009.8 hPa | 0 mm | 2.68 m/s, 357° | 0 W/m² | - |
| 1778052871 | 13.89° C | 77% | 1009.8 hPa | 0 mm | 1.79 m/s, 10° | 0 W/m² | - |
| 1778052812 | 13.89° C | 77% | 1009.8 hPa | 0 mm | 1.34 m/s, 44° | 0 W/m² | - |
* Rain latest hour (hover to see other rain measurements)
** Current wind speed in m/s (hover to see current wind gust speed)